INMARSAT 5-F3

Last updated on May 21, 2019, 3:10 a.m. UTC

1 40882U 15042A   19140.13043669  .00000040  00000-0  00000+0 0  9994
2 40882   0.0161 324.0409 0000989 145.0681 354.9433  1.00270782 13636
UTC
Height (km)
Latitude
Longitude
Inclination
Orbital Period
UTC large
Height (km)
Speed (km/s)
/
Latitude / Longitude
Inclination (degrees)
Orbital Period (minutes)
Azimuth
Elevation
Range (km)
Doppler Factor
iOS Compass Heading
iOS Angle

Next 30 passes for location: Hong Kong

Rise time Rise Azimuth (degrees) Set time Set Azimuth (degrees) Duration Max altitude (degrees)

No matching passes for this satellites